Weather History for Springfield, MO

Change the Weather History Date:

Thursday, December 6, 2012

  Actual Average Record
Temperature  
Mean Temperature 50 °F 37 °F  
Max Temperature 60 °F 47 °F 72 °F (1939)
Min Temperature 39 °F 27 °F -1 °F (1950)
Degree Days  
Heating Degree Days 15 28  
Month to date heating degree days 56 162  
Since 1 July heating degree days 973 1041  
Cooling Degree Days 0 0  
Month to date cooling degree days 2 0  
Year to date cooling degree days 1766 1389  
Moisture  
Dew Point 40 °F    
Average Humidity 72    
Maximum Humidity 90    
Minimum Humidity 54    
Precipitation  
Precipitation 0.00 in 0.12 in 1.66 in (1892)
Month to date precipitation 0.76 0.70  
Year to date precipitation 30.60 43.23  
Snow  
Snow 0.00 in - - ()
Month to date snowfall 0.0  
Since 1 July snowfall 0.0  
Snow Depth -    
Sea Level Pressure  
Sea Level Pressure 29.94 in    
Wind  
Wind Speed 9 mph (SSE)    
Max Wind Speed 15 mph    
Max Gust Speed 18 mph    
Visibility 10 miles    
Events      
T = Trace of Precipitation, MM = Missing Value Source: NWS Daily Summary

Daily Weather History Graph

Daily Weather History Graph

Search for Another Location

Airport:

Trip Planner

Search our weather history database for the weather conditions in past years. The results will help you decide how hot, cold, wet, or windy it might be!

Date:

Astronomy

Dec. 06, 2012 Rise Set
Actual Time 7:13 AM CST 4:55 PM CST
Civil Twilight 6:44 AM CST 5:24 PM CST
Nautical Twilight 6:12 AM CST 5:57 PM CST
Astronomical Twilight 5:40 AM CST 6:28 PM CST
Moon No Moon Rise 12:14 PM CST (12/6)
Length of Visible Light 10h 39m
Length of Day
9h 42m
Waning Gibbous, 49% of the Moon is Illuminated
Dec 6
Waning Gibbous
Dec 13
New
Dec 19
First Quarter
Dec 28
Full
Jan 4
Last Quarter

Hourly Weather History & Observations

Time (CST) Temp. Windchill Dew Point Humidity Pressure Visibility Wind Dir Wind Speed Gust Speed Precip Events Conditions
12:52 AM 45.0 °F 38.9 °F 32.0 °F 60% 30.05 in 10.0 mi SSE 12.7 mph - N/A   Clear
1:52 AM 41.0 °F 35.2 °F 32.0 °F 70% 30.05 in 10.0 mi South 9.2 mph - N/A   Clear
2:52 AM 42.1 °F 36.6 °F 33.1 °F 70% 30.03 in 10.0 mi SSE 9.2 mph - N/A   Clear
3:52 AM 42.1 °F 37.1 °F 34.0 °F 73% 30.01 in 10.0 mi SSE 8.1 mph - N/A   Clear
4:52 AM 41.0 °F 35.8 °F 34.0 °F 76% 30.01 in 10.0 mi SSE 8.1 mph - N/A   Clear
5:52 AM 39.0 °F 33.4 °F 33.1 °F 79% 30.01 in 10.0 mi SSE 8.1 mph - N/A   Clear
6:52 AM 41.0 °F 34.7 °F 34.0 °F 76% 30.01 in 10.0 mi SE 10.4 mph - N/A   Clear
7:52 AM 42.1 °F 36.6 °F 35.1 °F 76% 30.00 in 10.0 mi SSE 9.2 mph - N/A   Clear
8:52 AM 46.0 °F 40.6 °F 37.9 °F 73% 30.00 in 10.0 mi SSE 11.5 mph - N/A   Clear
9:52 AM 51.1 °F - 41.0 °F 68% 29.99 in 10.0 mi SSE 13.8 mph - N/A   Clear
10:52 AM 53.1 °F - 42.1 °F 66% 29.97 in 10.0 mi SSE 11.5 mph - N/A   Clear
11:52 AM 55.0 °F - 43.0 °F 64% 29.94 in 10.0 mi SSE 9.2 mph - N/A   Clear
12:52 PM 57.9 °F - 44.1 °F 60% 29.91 in 10.0 mi South 9.2 mph - N/A   Clear
1:52 PM 60.1 °F - 44.1 °F 55% 29.88 in 10.0 mi SSE 6.9 mph - N/A   Clear
2:52 PM 59.0 °F - 44.1 °F 58% 29.86 in 10.0 mi SE 12.7 mph - N/A   Clear
3:52 PM 57.9 °F - 45.0 °F 62% 29.86 in 10.0 mi SE 10.4 mph - N/A   Clear
4:52 PM 55.0 °F - 45.0 °F 69% 29.86 in 10.0 mi SE 5.8 mph - N/A   Clear
5:52 PM 50.0 °F - 43.0 °F 77% 29.87 in 10.0 mi ESE 6.9 mph - N/A   Clear
6:52 PM 52.0 °F - 45.0 °F 77% 29.86 in 10.0 mi SE 10.4 mph - N/A   Clear
7:52 PM 52.0 °F - 45.0 °F 77% 29.86 in 10.0 mi SSE 11.5 mph - N/A   Clear
8:52 PM 50.0 °F - 45.0 °F 83% 29.89 in 10.0 mi WSW 9.2 mph - N/A   Clear
9:52 PM 46.9 °F - 43.0 °F 86% 29.88 in 10.0 mi SSW 8.1 mph - N/A   Clear
10:52 PM 46.9 °F - 44.1 °F 90% 29.88 in 10.0 mi South 6.9 mph - N/A   Clear
11:52 PM 48.9 °F - 45.0 °F 86% 29.88 in 10.0 mi SSE 6.9 mph - N/A   Mostly Cloudy